Regional Weather Roundup
Issued by NWS

Home | Current Version | Previous Version | Graphics & Text | Print | Product List | Glossary On
Versions: 1 2 3 4 5 6 7 8 9 10 11 12 13 14 15 16 17 18 19 20 21 22 23 24 25 26 27 28 29 30 31 32 33 34 35 36 37 38 39 40 41 42 43 44 45 46 47 48 49 50
000
ASUS43 KTOP 240859
RWRKS

WEATHER ROUNDUP FOR KANSAS
NATIONAL WEATHER SERVICE GOODLAND KS
400 AM CDT THU APR 24 2014

NOTE:  "FAIR" INDICATES FEW OR NO CLOUDS BELOW 12,000 FEET WITH NO
SIGNIFICANT WEATHER AND/OR OBSTRUCTIONS TO VISIBILITY.

KSZ001>006-013>018-027>032-041>047-241000-
NORTHWEST KANSAS

CITY           SKY/WX    TMP DP  RH WIND       PRES   REMARKS
GOODLAND       CLOUDY    55  17  22 NW21      29.84R
HAYS           CLOUDY    54  52  94 N14       29.74R
HILL CITY      CLOUDY    54  46  74 N12       29.76R
RUSSELL        LGT RAIN  54  51  90 N18       29.70R
$$

KSZ061>065-074>080-084>089-241000-
SOUTHWEST KANSAS

CITY           SKY/WX    TMP DP  RH WIND       PRES   REMARKS
DODGE CITY     CLOUDY    50  45  83 N20       29.74S
ELKHART          N/A     49  28  44 NW22        N/A
GARDEN CITY    CLOUDY    55  32  41 N26G33    29.79R
GREAT BEND     CLOUDY    54  48  82 N20       29.70R
LIBERAL        MOCLDY    55  30  38 N30G44    29.77F
$$

KSZ066>073-081>083-090>101-241000-
SOUTHEAST KANSAS

CITY           SKY/WX    TMP DP  RH WIND       PRES   REMARKS
CHANUTE        CLOUDY    67  54  63 S15       29.65R
COFFEYVILLE    CLOUDY    70  55  59 S13G23    29.63S
HUTCHINSON     CLOUDY    66  58  75 W18       29.63R
MEDICINE LODGE   N/A     66  59  78 S8        29.61R
NEWTON         CLOUDY    66  54  63 S18G25    29.61S
PARSONS        CLOUDY    69  54  58 S8        29.66R
WICHITA INTL   MOCLDY    66  58  75 S18G28    29.58R
WICHITA JABRA  MOCLDY    67  58  72 S17G25    29.59R
WINFIELD       MOCLDY    67  59  75 S18       29.58F
$$

KSZ007>012-019>026-033>040-048>060-102>105-241000-
NORTHEAST KANSAS

CITY           SKY/WX    TMP DP  RH WIND       PRES   REMARKS
CONCORDIA      RAIN      55  54  96 NW7       29.66R FOG
EMPORIA        CLOUDY    68  56  65 S26G36    29.57S
LAWRENCE       CLOUDY    70  54  56 W7G18     29.64R
MANHATTAN      CLOUDY    66  50  56 VRB7      29.62R
OLATHE IND     CLOUDY    66  49  54 S17G28    29.62R
OLATHE EXE     CLOUDY    65  47  52 S17G29    29.60S
SALINA         CLOUDY    58  53  84 N10       29.61S THUNDER HAZE
TOPEKA BILLARD CLOUDY    72  55  55 W8        29.63R
TOPEKA FORBES  CLOUDY    72  55  55 W13       29.64R
$$



USA.gov is the U.S. government's official web portal to all federal, state and local government web resources and services.